STARLINK-1635, 46172

Orbit data source: Space-Track

STARLINK-1635, 46172 is a payload satellite owned by SpaceX/Seattle (US) in LEO that was launched on Tue, 18 Aug 2020 UTC via an FALCON 9 launch vehicle from the Air Force Eastern Test Range (AFETR). Payload-class satellites include a variety of spacecraft equipped with specific instruments for various scientific and technological missions. These include communications satellites like Starlink; space stations such as the ISS; scientific satellites like the Hubble; Earth observation satellites from companies like Planet Labs, Umbra, and HawkEye 360; GPS; miniature CubeSats for education and research; and military/defense satellites.

Loading next visibility...
Identifier
46172, 2020-057BH
Orbit
LEO
Country
Flag of USUS
Related business
Manufacturer
SpaceX/Seattle
Mission
Operational Commercial Communications
Bus & Motor
STARLINK, Unknown motor
Mass
260 kg wet, ~248 kg dry
Launch date (UTC)
2020-08-18 (5 years ago)
Launch vehicle
FALCON 9
Launch site
Air Force Eastern Test Range (AFETR)
Object type
Payload
Rocket body
Debris
Shape & HBR
Box + 1 Pan, 4.4 m
Radar Cross Section
13.562 m², Large (>1 m²)

Expand to show TLE details & history
Last TLE update: 19 hours ago

TLE from 19 hours ago
0 STARLINK-1635
1 46172U 20057BH  25260.55517781 -.00001737  00000-0 -97792-4 0  9996
2 46172  53.0536 353.8476 0001210 126.7172 233.3929 15.06389595281508
Epoch: 2025-09-17T13:19Z
TLE epoch observation values (Epoch: 2025-09-17T13:19:27.362Z)
Latitude
0.00002°
Longitude
157.25416°
Altitude
548.622 km
Speed
7.589 km/s
True Right ascension
23h 35m 23s
True Declination
0° 00' 00"
Sunlit
Object was in full shadow at epoch
Visualization orbit readout
Latitude
Unknown
Longitude
Unknown
Altitude
Unknown
Speed
Unknown
Apparent Right ascension
Unknown
Apparent Declination
Unknown
Sunlit
N/A
Visualization observer readout
Local Sidereal Time
00:45:13
Azimuth
Unknown
Elevation
Unknown
Doppler factor
Unknown
Orbital elements
Apogee altitude
548.352 km
Perigee altitude
546.676 km
Semi-major axis
6,925.651 km
Eccentricity
0.00012
Inclination
53.0536°
RAAN
353.8476°
Arg. of periapsis
126.7172°
True anomaly
233.38177°
Mean anomaly
233.3929°
Eccentric anomaly
233.38734°
Mean motion
3.76576 °/min
Orbital period
95.6 mins
BSTAR
-0.000097792
Loading maneuver chart data...
Computing Atmospheric mass density...

Documentation

Showing up to 5 results
|